TAM4679 SBFZ-SBGR

Flight info

Callsign TAM4679
Flight time 3h 2m
Altitude 36000
Route ERUGU UZ61 REDAD UZ21 VUNOX
Aircraft A320/M-SDE3FGHIRWY/LB1

Departure

Time 2026-05-08 15:38
Airport Pinto Martins International Airport (SBFZ)

Arrival

Time 2026-05-08 18:40
Airport São Paulo/Guarulhos–Governor André Franco Montoro International Airport (SBGR)
Time Latitude Longitude Altitude Speed Heading
2026-05-08 15:17 -3.77795 -38.53956 96 ft 0 kts 225°
2026-05-08 15:29 -3.77793 -38.53954 96 ft 2 kts 225°
2026-05-08 15:29 -3.77783 -38.53944 96 ft 2 kts 225°
2026-05-08 15:30 -3.77772 -38.53933 96 ft 2 kts 225°
2026-05-08 15:30 -3.77761 -38.53923 96 ft 2 kts 239°
2026-05-08 15:30 -3.77758 -38.53908 96 ft 2 kts 276°
2026-05-08 15:30 -3.77762 -38.53896 96 ft 0 kts 307°
2026-05-08 15:31 -3.77766 -38.53891 96 ft 1 kts 313°
2026-05-08 15:31 -3.77767 -38.53889 96 ft 0 kts 312°
2026-05-08 15:33 -3.77763 -38.53894 96 ft 2 kts 312°
2026-05-08 15:33 -3.77748 -38.53912 96 ft 4 kts 309°
2026-05-08 15:33 -3.77727 -38.53941 95 ft 5 kts 303°
2026-05-08 15:33 -3.77706 -38.53983 95 ft 7 kts 290°
2026-05-08 15:34 -3.77690 -38.54040 95 ft 9 kts 285°
2026-05-08 15:34 -3.77670 -38.54112 94 ft 11 kts 284°
2026-05-08 15:34 -3.77649 -38.54194 93 ft 12 kts 284°
2026-05-08 15:34 -3.77631 -38.54264 92 ft 8 kts 284°
2026-05-08 15:35 -3.77613 -38.54328 92 ft 9 kts 284°
2026-05-08 15:35 -3.77573 -38.54370 91 ft 9 kts 342°
2026-05-08 15:35 -3.77505 -38.54384 91 ft 9 kts 353°
2026-05-08 15:35 -3.77447 -38.54381 91 ft 8 kts 14°
2026-05-08 15:36 -3.77389 -38.54366 91 ft 6 kts 14°
2026-05-08 15:36 -3.77359 -38.54358 91 ft 5 kts 14°
2026-05-08 15:36 -3.77341 -38.54342 91 ft 1 kts 104°
2026-05-08 15:36 -3.77341 -38.54341 91 ft 0 kts 105°
2026-05-08 15:37 -3.77341 -38.54340 91 ft 0 kts 105°
2026-05-08 15:37 -3.77345 -38.54326 91 ft 10 kts 104°
2026-05-08 15:37 -3.77427 -38.54014 94 ft 80 kts 104°
2026-05-08 15:37 -3.77625 -38.53269 91 ft 139 kts 104°
2026-05-08 15:38 -3.77915 -38.52183 204 ft 175 kts 104°
2026-05-08 15:38 -3.78231 -38.51046 852 ft 171 kts 105°
2026-05-08 15:38 -3.78567 -38.49865 1237 ft 185 kts 105°
2026-05-08 15:38 -3.78932 -38.48569 1591 ft 202 kts 105°
2026-05-08 15:39 -3.79339 -38.47142 1897 ft 223 kts 109°
2026-05-08 15:39 -3.80171 -38.45866 2601 ft 226 kts 143°
2026-05-08 15:39 -3.81640 -38.45344 3337 ft 231 kts 175°
2026-05-08 15:39 -3.83245 -38.45587 3962 ft 242 kts 192°
2026-05-08 15:40 -3.84928 -38.46054 4387 ft 259 kts 192°
2026-05-08 15:40 -3.86732 -38.46543 4836 ft 274 kts 192°
2026-05-08 15:40 -3.88618 -38.47039 5510 ft 280 kts 191°
2026-05-08 15:40 -3.90503 -38.47522 6213 ft 284 kts 191°
2026-05-08 15:41 -3.92451 -38.48010 6941 ft 287 kts 191°
2026-05-08 15:41 -3.94389 -38.48492 7647 ft 290 kts 190°
2026-05-08 15:41 -3.96369 -38.48983 8335 ft 293 kts 190°
2026-05-08 15:41 -3.98338 -38.49475 9034 ft 296 kts 191°
2026-05-08 15:42 -4.00355 -38.49984 9729 ft 298 kts 191°
2026-05-08 15:42 -4.02365 -38.50495 10341 ft 302 kts 191°
2026-05-08 15:42 -4.04469 -38.51027 10691 ft 317 kts 191°
2026-05-08 15:42 -4.06622 -38.51573 11207 ft 324 kts 192°
2026-05-08 15:43 -4.08812 -38.52130 11852 ft 326 kts 192°
2026-05-08 15:43 -4.11030 -38.52695 12475 ft 328 kts 192°
2026-05-08 15:43 -4.13240 -38.53257 13064 ft 330 kts 192°
2026-05-08 15:43 -4.15487 -38.53828 13630 ft 333 kts 193°
2026-05-08 15:44 -4.17733 -38.54400 14155 ft 336 kts 193°
2026-05-08 15:44 -4.20041 -38.54985 14682 ft 339 kts 193°
2026-05-08 15:44 -4.22330 -38.55566 15186 ft 342 kts 194°
2026-05-08 15:44 -4.24635 -38.56151 15686 ft 345 kts 194°
2026-05-08 15:45 -4.26992 -38.56751 16178 ft 348 kts 194°
2026-05-08 15:45 -4.29351 -38.57351 16659 ft 350 kts 194°
2026-05-08 15:45 -4.31725 -38.57954 17127 ft 353 kts 195°
2026-05-08 15:45 -4.34127 -38.58567 17583 ft 356 kts 195°
2026-05-08 15:46 -4.36533 -38.59182 17991 ft 360 kts 195°
2026-05-08 15:46 -4.38980 -38.59806 18382 ft 364 kts 195°
2026-05-08 15:46 -4.41454 -38.60436 18763 ft 368 kts 195°
2026-05-08 15:46 -4.43935 -38.61068 19178 ft 371 kts 195°
2026-05-08 15:47 -4.46483 -38.61715 19569 ft 374 kts 195°
2026-05-08 15:47 -4.48974 -38.62400 19935 ft 377 kts 198°
2026-05-08 15:47 -4.51483 -38.63247 20315 ft 380 kts 200°
2026-05-08 15:47 -4.54006 -38.64145 20687 ft 383 kts 200°
2026-05-08 15:48 -4.59079 -38.65964 21413 ft 389 kts 200°
2026-05-08 15:48 -4.61637 -38.66881 21753 ft 393 kts 200°
2026-05-08 15:48 -4.64245 -38.67813 22097 ft 396 kts 200°
2026-05-08 15:49 -4.66832 -38.68738 22417 ft 399 kts 200°
2026-05-08 15:49 -4.69460 -38.69676 22750 ft 402 kts 200°
2026-05-08 15:49 -4.72120 -38.70625 23110 ft 404 kts 201°
2026-05-08 15:49 -4.74773 -38.71572 23492 ft 405 kts 201°
2026-05-08 15:50 -4.77447 -38.72528 23882 ft 406 kts 201°
2026-05-08 15:50 -4.80102 -38.73477 24253 ft 407 kts 201°
2026-05-08 15:50 -4.82803 -38.74442 24628 ft 408 kts 201°
2026-05-08 15:50 -4.85487 -38.75400 24959 ft 410 kts 201°
2026-05-08 15:51 -4.88161 -38.76356 25296 ft 411 kts 201°
2026-05-08 15:51 -4.90888 -38.77331 25638 ft 412 kts 201°
2026-05-08 15:51 -4.93596 -38.78303 25972 ft 413 kts 201°
2026-05-08 15:51 -4.96317 -38.79280 26287 ft 415 kts 201°
2026-05-08 15:52 -4.99030 -38.80255 26580 ft 417 kts 201°
2026-05-08 15:52 -5.01766 -38.81239 26870 ft 419 kts 201°
2026-05-08 15:52 -5.04521 -38.82227 27159 ft 420 kts 201°
2026-05-08 15:52 -5.07292 -38.83223 27465 ft 421 kts 202°
2026-05-08 15:53 -5.10063 -38.84218 27778 ft 422 kts 202°
2026-05-08 15:53 -5.12849 -38.85220 28075 ft 423 kts 202°
2026-05-08 15:53 -5.15620 -38.86218 28380 ft 423 kts 202°
2026-05-08 15:53 -5.18388 -38.87214 28701 ft 424 kts 202°
2026-05-08 15:54 -5.21171 -38.88216 28998 ft 425 kts 202°
2026-05-08 15:54 -5.23994 -38.89233 29262 ft 427 kts 202°
2026-05-08 15:54 -5.26778 -38.90234 29513 ft 429 kts 202°
2026-05-08 15:54 -5.29612 -38.91253 29772 ft 431 kts 202°
2026-05-08 15:55 -5.32462 -38.92278 30016 ft 433 kts 202°
2026-05-08 15:55 -5.38148 -38.94325 30504 ft 437 kts 202°
2026-05-08 15:55 -5.41030 -38.95361 30735 ft 439 kts 202°
2026-05-08 15:56 -5.43916 -38.96399 30961 ft 441 kts 202°
2026-05-08 15:56 -5.46835 -38.97449 31189 ft 444 kts 202°
2026-05-08 15:56 -5.49740 -38.98497 31432 ft 445 kts 202°
2026-05-08 15:56 -5.52684 -38.99557 31668 ft 447 kts 202°
2026-05-08 15:57 -5.55633 -39.00618 31896 ft 449 kts 202°
2026-05-08 15:57 -5.58571 -39.01678 32116 ft 451 kts 202°
2026-05-08 15:57 -5.61517 -39.02739 32342 ft 453 kts 202°
2026-05-08 15:57 -5.64496 -39.03812 32548 ft 455 kts 202°
2026-05-08 15:58 -5.67505 -39.04897 32738 ft 457 kts 202°
2026-05-08 15:58 -5.70525 -39.05985 32962 ft 459 kts 202°
2026-05-08 15:58 -5.73519 -39.07063 33212 ft 460 kts 202°
2026-05-08 15:58 -5.76560 -39.08159 33461 ft 460 kts 202°
2026-05-08 15:59 -5.79582 -39.09244 33790 ft 459 kts 202°
2026-05-08 15:59 -5.82583 -39.10319 34159 ft 457 kts 202°
2026-05-08 15:59 -5.85568 -39.11390 34478 ft 455 kts 202°
2026-05-08 15:59 -5.88551 -39.12462 34747 ft 455 kts 202°
2026-05-08 16:00 -5.91535 -39.13535 34976 ft 454 kts 202°
2026-05-08 16:00 -5.94526 -39.14610 35182 ft 455 kts 202°
2026-05-08 16:00 -5.97478 -39.15671 35386 ft 455 kts 202°
2026-05-08 16:00 -6.00495 -39.16757 35572 ft 455 kts 202°
2026-05-08 16:01 -6.03474 -39.17829 35740 ft 455 kts 202°
2026-05-08 16:01 -6.06444 -39.18898 35848 ft 457 kts 202°
2026-05-08 16:01 -6.12466 -39.21067 35929 ft 461 kts 202°
2026-05-08 16:02 -6.18568 -39.23262 35971 ft 466 kts 202°
2026-05-08 16:02 -6.24691 -39.25466 35969 ft 467 kts 202°
2026-05-08 16:03 -6.30811 -39.27669 35969 ft 466 kts 202°
2026-05-08 16:03 -6.36941 -39.29876 35973 ft 466 kts 202°
2026-05-08 16:04 -6.43025 -39.32069 35973 ft 466 kts 202°
2026-05-08 16:04 -6.49145 -39.34276 35971 ft 466 kts 202°
2026-05-08 16:05 -6.55249 -39.36479 35975 ft 466 kts 202°
2026-05-08 16:05 -6.61369 -39.38688 35977 ft 465 kts 202°
2026-05-08 16:06 -6.67468 -39.40889 35974 ft 465 kts 202°
2026-05-08 16:06 -6.73580 -39.43097 35981 ft 465 kts 202°
2026-05-08 16:07 -6.79676 -39.45297 35984 ft 465 kts 202°
2026-05-08 16:07 -6.85778 -39.47503 35999 ft 465 kts 202°
2026-05-08 16:08 -6.91855 -39.49699 36010 ft 464 kts 202°
2026-05-08 16:08 -6.97960 -39.51904 36023 ft 463 kts 202°
2026-05-08 16:09 -7.03015 -39.53731 36034 ft 463 kts 202°
2026-05-08 16:09 -7.10102 -39.56294 36046 ft 463 kts 202°
2026-05-08 16:10 -7.16158 -39.58484 36049 ft 463 kts 202°
2026-05-08 16:10 -7.22262 -39.60694 36057 ft 463 kts 202°
2026-05-08 16:11 -7.28318 -39.62886 36062 ft 462 kts 202°
2026-05-08 16:11 -7.34367 -39.65076 36065 ft 462 kts 202°
2026-05-08 16:12 -7.40427 -39.67271 36071 ft 462 kts 202°
2026-05-08 16:12 -7.46509 -39.69475 36069 ft 462 kts 202°
2026-05-08 16:13 -7.52532 -39.71659 36068 ft 462 kts 202°
2026-05-08 16:13 -7.58591 -39.73854 36066 ft 462 kts 202°
2026-05-08 16:14 -7.64655 -39.76054 36064 ft 461 kts 202°
2026-05-08 16:14 -7.70711 -39.78251 36063 ft 461 kts 202°
2026-05-08 16:15 -7.76747 -39.80441 36056 ft 461 kts 202°
2026-05-08 16:15 -7.82809 -39.82641 36050 ft 461 kts 202°
2026-05-08 16:16 -7.88856 -39.84837 36041 ft 461 kts 202°
2026-05-08 16:16 -7.94877 -39.87024 36031 ft 460 kts 202°
2026-05-08 16:17 -7.99925 -39.88857 36022 ft 460 kts 202°
2026-05-08 16:17 -8.06940 -39.91406 36019 ft 460 kts 202°
2026-05-08 16:18 -8.12990 -39.93605 36017 ft 460 kts 202°
2026-05-08 16:18 -8.19000 -39.95792 36013 ft 459 kts 202°
2026-05-08 16:19 -8.25008 -39.97979 36016 ft 459 kts 202°
2026-05-08 16:19 -8.31049 -40.00177 36021 ft 459 kts 202°
2026-05-08 16:20 -8.37060 -40.02365 36029 ft 459 kts 202°
2026-05-08 16:20 -8.43072 -40.04553 36028 ft 458 kts 202°
2026-05-08 16:21 -8.49096 -40.06747 36021 ft 458 kts 202°
2026-05-08 16:21 -8.55086 -40.08931 36024 ft 457 kts 202°
2026-05-08 16:22 -8.61058 -40.11108 36030 ft 456 kts 201°
2026-05-08 16:22 -8.67051 -40.13293 36034 ft 456 kts 202°
2026-05-08 16:23 -8.73021 -40.15471 36034 ft 456 kts 202°
2026-05-08 16:23 -8.79012 -40.17657 36034 ft 456 kts 202°
2026-05-08 16:24 -8.85009 -40.19847 36026 ft 456 kts 202°
2026-05-08 16:24 -8.90949 -40.22015 36018 ft 456 kts 201°
2026-05-08 16:25 -8.96955 -40.24210 36012 ft 456 kts 201°
2026-05-08 16:25 -9.02931 -40.26393 36009 ft 456 kts 201°
2026-05-08 16:26 -9.08910 -40.28579 36008 ft 455 kts 201°
2026-05-08 16:26 -9.14867 -40.30757 36016 ft 455 kts 201°
2026-05-08 16:27 -9.20861 -40.32950 36023 ft 455 kts 201°
2026-05-08 16:27 -9.26820 -40.35131 36024 ft 455 kts 201°
2026-05-08 16:28 -9.32794 -40.37317 36025 ft 455 kts 202°
2026-05-08 16:28 -9.38748 -40.39497 36027 ft 455 kts 201°
2026-05-08 16:29 -9.44695 -40.41673 36032 ft 455 kts 201°
2026-05-08 16:29 -9.50662 -40.43859 36031 ft 454 kts 201°
2026-05-08 16:30 -9.56617 -40.46043 36037 ft 454 kts 201°
2026-05-08 16:30 -9.62560 -40.48222 36040 ft 454 kts 201°
2026-05-08 16:31 -9.68495 -40.50399 36043 ft 453 kts 201°
2026-05-08 16:31 -9.74456 -40.52585 36048 ft 453 kts 201°
2026-05-08 16:32 -9.80356 -40.54750 36063 ft 452 kts 201°
2026-05-08 16:32 -9.86298 -40.56935 36068 ft 453 kts 201°
2026-05-08 16:33 -9.92251 -40.59124 36071 ft 453 kts 201°
2026-05-08 16:33 -9.98151 -40.61293 36073 ft 453 kts 201°
2026-05-08 16:34 -10.04121 -40.63489 36069 ft 452 kts 201°
2026-05-08 16:34 -10.10052 -40.65673 36065 ft 453 kts 201°
2026-05-08 16:35 -10.15971 -40.67851 36065 ft 453 kts 201°
2026-05-08 16:35 -10.21883 -40.70028 36066 ft 452 kts 201°
2026-05-08 16:36 -10.27814 -40.72213 36065 ft 451 kts 201°
2026-05-08 16:36 -10.33712 -40.74388 36064 ft 451 kts 201°
2026-05-08 16:37 -10.39633 -40.76572 36064 ft 451 kts 201°
2026-05-08 16:37 -10.45536 -40.78750 36065 ft 451 kts 201°
2026-05-08 16:38 -10.51459 -40.80936 36070 ft 451 kts 201°
2026-05-08 16:38 -10.57375 -40.83122 36070 ft 451 kts 201°
2026-05-08 16:39 -10.63253 -40.85293 36077 ft 451 kts 201°
2026-05-08 16:39 -10.69174 -40.87479 36077 ft 451 kts 201°
2026-05-08 16:40 -10.75090 -40.89664 36074 ft 450 kts 201°
2026-05-08 16:40 -10.80992 -40.91844 36076 ft 450 kts 201°
2026-05-08 16:41 -10.86891 -40.94025 36078 ft 450 kts 201°
2026-05-08 16:42 -10.95707 -40.97287 36081 ft 450 kts 201°
2026-05-08 16:42 -11.01614 -40.99474 36079 ft 450 kts 201°
2026-05-08 16:43 -11.07529 -41.01671 36087 ft 450 kts 201°
2026-05-08 16:43 -11.13410 -41.03852 36091 ft 449 kts 201°
2026-05-08 16:44 -11.19297 -41.06032 36091 ft 449 kts 201°
2026-05-08 16:44 -11.25157 -41.08203 36098 ft 448 kts 201°
2026-05-08 16:45 -11.31039 -41.10384 36101 ft 448 kts 201°
2026-05-08 16:45 -11.36893 -41.12557 36104 ft 448 kts 201°
2026-05-08 16:46 -11.42775 -41.14743 36112 ft 447 kts 201°
2026-05-08 16:46 -11.48597 -41.16904 36121 ft 446 kts 201°
2026-05-08 16:47 -11.54461 -41.19084 36129 ft 446 kts 201°
2026-05-08 16:47 -11.60271 -41.21243 36138 ft 445 kts 201°
2026-05-08 16:48 -11.66109 -41.23412 36145 ft 446 kts 201°
2026-05-08 16:48 -11.71926 -41.25577 36149 ft 446 kts 201°
2026-05-08 16:49 -11.77782 -41.27756 36150 ft 445 kts 201°
2026-05-08 16:49 -11.83579 -41.29914 36143 ft 444 kts 201°
2026-05-08 16:50 -11.89390 -41.32080 36140 ft 443 kts 201°
2026-05-08 16:50 -11.95203 -41.34247 36136 ft 443 kts 201°
2026-05-08 16:51 -12.01008 -41.36412 36136 ft 443 kts 201°
2026-05-08 16:51 -12.06784 -41.38568 36134 ft 443 kts 201°
2026-05-08 16:52 -12.12570 -41.40727 36133 ft 443 kts 201°
2026-05-08 16:52 -12.18399 -41.42905 36130 ft 444 kts 201°
2026-05-08 16:53 -12.27111 -41.46160 36123 ft 442 kts 201°
2026-05-08 16:53 -12.32877 -41.48315 36127 ft 442 kts 201°
2026-05-08 16:54 -12.38703 -41.50494 36131 ft 443 kts 201°
2026-05-08 16:54 -12.44465 -41.52649 36137 ft 442 kts 201°
2026-05-08 16:55 -12.50273 -41.54824 36139 ft 441 kts 201°
2026-05-08 16:55 -12.56038 -41.56985 36149 ft 442 kts 201°
2026-05-08 16:56 -12.61842 -41.59159 36157 ft 442 kts 201°
2026-05-08 16:56 -12.67609 -41.61323 36165 ft 442 kts 201°
2026-05-08 16:57 -12.73381 -41.63487 36166 ft 441 kts 201°
2026-05-08 16:57 -12.79149 -41.65653 36168 ft 441 kts 201°
2026-05-08 16:58 -12.84933 -41.67824 36169 ft 440 kts 201°
2026-05-08 16:58 -12.90670 -41.69979 36176 ft 441 kts 201°
2026-05-08 16:59 -12.96462 -41.72156 36176 ft 441 kts 201°
2026-05-08 16:59 -13.02217 -41.74320 36177 ft 441 kts 201°
2026-05-08 17:00 -13.07988 -41.76491 36181 ft 439 kts 201°
2026-05-08 17:00 -13.13710 -41.78647 36162 ft 439 kts 201°
2026-05-08 17:01 -13.19465 -41.80814 36161 ft 439 kts 201°
2026-05-08 17:01 -13.25224 -41.82984 36147 ft 438 kts 201°
2026-05-08 17:02 -13.30952 -41.85144 36142 ft 439 kts 201°
2026-05-08 17:02 -13.36715 -41.87318 36149 ft 439 kts 201°
2026-05-08 17:03 -13.42436 -41.89477 36146 ft 439 kts 201°
2026-05-08 17:03 -13.48171 -41.91642 36160 ft 439 kts 201°
2026-05-08 17:04 -13.53939 -41.93823 36160 ft 440 kts 201°
2026-05-08 17:04 -13.59666 -41.95987 36149 ft 439 kts 201°
2026-05-08 17:05 -13.65444 -41.98174 36133 ft 439 kts 201°
2026-05-08 17:05 -13.71181 -42.00346 36113 ft 438 kts 201°
2026-05-08 17:06 -13.76891 -42.02508 36079 ft 437 kts 201°
2026-05-08 17:06 -13.82618 -42.04680 36069 ft 438 kts 201°
2026-05-08 17:07 -13.88359 -42.06858 36074 ft 438 kts 201°
2026-05-08 17:07 -13.94078 -42.09027 36074 ft 439 kts 201°
2026-05-08 17:08 -13.99843 -42.11218 36067 ft 438 kts 201°
2026-05-08 17:08 -14.05552 -42.13385 36067 ft 438 kts 201°
2026-05-08 17:09 -14.11298 -42.15569 36070 ft 438 kts 201°
2026-05-08 17:09 -14.17014 -42.17742 36074 ft 437 kts 201°
2026-05-08 17:10 -14.22732 -42.19919 36078 ft 437 kts 201°
2026-05-08 17:10 -14.28446 -42.22094 36077 ft 436 kts 201°
2026-05-08 17:11 -14.34140 -42.24261 36076 ft 437 kts 200°
2026-05-08 17:11 -14.39966 -42.26124 36077 ft 438 kts 197°
2026-05-08 17:12 -14.45818 -42.27844 36083 ft 437 kts 197°
2026-05-08 17:12 -14.51687 -42.29567 36088 ft 438 kts 197°
2026-05-08 17:13 -14.57567 -42.31295 36092 ft 437 kts 197°
2026-05-08 17:13 -14.63425 -42.33017 36096 ft 437 kts 197°
2026-05-08 17:14 -14.69292 -42.34743 36099 ft 438 kts 197°
2026-05-08 17:14 -14.75126 -42.36463 36102 ft 437 kts 197°
2026-05-08 17:15 -14.80991 -42.38193 36107 ft 437 kts 197°
2026-05-08 17:15 -14.86881 -42.39931 36109 ft 437 kts 197°
2026-05-08 17:16 -14.92721 -42.41654 36118 ft 437 kts 197°
2026-05-08 17:16 -14.98565 -42.43380 36124 ft 437 kts 197°
2026-05-08 17:17 -15.04454 -42.45120 36131 ft 437 kts 197°
2026-05-08 17:17 -15.10306 -42.46849 36135 ft 437 kts 197°
2026-05-08 17:18 -15.16134 -42.48572 36139 ft 437 kts 197°
2026-05-08 17:18 -15.22008 -42.50312 36142 ft 437 kts 197°
2026-05-08 17:19 -15.27869 -42.52047 36143 ft 436 kts 197°
2026-05-08 17:19 -15.33718 -42.53781 36149 ft 436 kts 197°
2026-05-08 17:20 -15.39559 -42.55512 36157 ft 436 kts 197°
2026-05-08 17:20 -15.45402 -42.57246 36163 ft 435 kts 197°
2026-05-08 17:21 -15.51205 -42.58969 36170 ft 435 kts 197°
2026-05-08 17:21 -15.57061 -42.60708 36170 ft 435 kts 197°
2026-05-08 17:22 -15.62875 -42.62435 36167 ft 435 kts 197°
2026-05-08 17:22 -15.68735 -42.64177 36167 ft 435 kts 197°
2026-05-08 17:23 -15.74573 -42.65916 36166 ft 435 kts 197°
2026-05-08 17:23 -15.80365 -42.67639 36162 ft 435 kts 197°
2026-05-08 17:24 -15.86226 -42.69385 36161 ft 435 kts 198°
2026-05-08 17:24 -15.92045 -42.71120 36156 ft 434 kts 198°
2026-05-08 17:25 -15.97838 -42.72847 36153 ft 432 kts 198°
2026-05-08 17:25 -16.03632 -42.74577 36149 ft 433 kts 197°
2026-05-08 17:26 -16.09419 -42.76304 36152 ft 433 kts 198°
2026-05-08 17:26 -16.15225 -42.78039 36152 ft 434 kts 198°
2026-05-08 17:27 -16.21046 -42.79780 36152 ft 434 kts 198°
2026-05-08 17:27 -16.26881 -42.81525 36151 ft 434 kts 198°
2026-05-08 17:28 -16.32669 -42.83257 36149 ft 434 kts 198°
2026-05-08 17:28 -16.38492 -42.85003 36144 ft 433 kts 198°
2026-05-08 17:29 -16.44285 -42.86740 36142 ft 433 kts 198°
2026-05-08 17:29 -16.50105 -42.88484 36137 ft 433 kts 198°
2026-05-08 17:30 -16.55898 -42.90223 36135 ft 433 kts 198°
2026-05-08 17:30 -16.61697 -42.91966 36137 ft 433 kts 198°
2026-05-08 17:31 -16.67504 -42.93710 36139 ft 432 kts 198°
2026-05-08 17:31 -16.73293 -42.95452 36140 ft 433 kts 198°
2026-05-08 17:32 -16.79068 -42.97190 36142 ft 433 kts 198°
2026-05-08 17:32 -16.84872 -42.98938 36139 ft 433 kts 198°
2026-05-08 17:33 -16.90671 -43.00683 36135 ft 434 kts 198°
2026-05-08 17:33 -16.96488 -43.02438 36133 ft 434 kts 198°
2026-05-08 17:34 -17.02312 -43.04195 36133 ft 434 kts 198°
2026-05-08 17:34 -17.08142 -43.05954 36131 ft 434 kts 198°
2026-05-08 17:35 -17.13925 -43.07699 36131 ft 433 kts 198°
2026-05-08 17:35 -17.19729 -43.09456 36129 ft 433 kts 198°
2026-05-08 17:36 -17.25538 -43.11212 36126 ft 434 kts 198°
2026-05-08 17:36 -17.31369 -43.12977 36128 ft 434 kts 198°
2026-05-08 17:37 -17.37179 -43.14737 36132 ft 434 kts 198°
2026-05-08 17:37 -17.42975 -43.16492 36138 ft 434 kts 198°
2026-05-08 17:38 -17.48777 -43.18252 36145 ft 434 kts 198°
2026-05-08 17:38 -17.54595 -43.20017 36153 ft 434 kts 198°
2026-05-08 17:39 -17.60405 -43.21782 36155 ft 434 kts 198°
2026-05-08 17:39 -17.66228 -43.23552 36157 ft 434 kts 198°
2026-05-08 17:40 -17.72020 -43.25312 36159 ft 434 kts 198°
2026-05-08 17:40 -17.77848 -43.27085 36157 ft 435 kts 198°
2026-05-08 17:41 -17.83670 -43.28856 36158 ft 435 kts 199°
2026-05-08 17:41 -17.89485 -43.30628 36156 ft 435 kts 198°
2026-05-08 17:42 -17.95342 -43.32413 36159 ft 436 kts 199°
2026-05-08 17:42 -18.01156 -43.34187 36158 ft 435 kts 198°
2026-05-08 17:43 -18.07014 -43.35974 36158 ft 435 kts 199°
2026-05-08 17:43 -18.12790 -43.37738 36159 ft 435 kts 199°
2026-05-08 17:44 -18.18658 -43.39535 36160 ft 435 kts 199°
2026-05-08 17:44 -18.24331 -43.41668 36157 ft 434 kts 205°
2026-05-08 17:45 -18.29783 -43.44404 36157 ft 433 kts 210°
2026-05-08 17:45 -18.35124 -43.47406 36156 ft 433 kts 210°
2026-05-08 17:46 -18.40406 -43.50392 36158 ft 433 kts 210°
2026-05-08 17:46 -18.45730 -43.53402 36158 ft 433 kts 210°
2026-05-08 17:47 -18.51056 -43.56415 36157 ft 433 kts 210°
2026-05-08 17:47 -18.55481 -43.58921 36158 ft 432 kts 210°
2026-05-08 17:48 -18.61659 -43.62425 36159 ft 433 kts 210°
2026-05-08 17:48 -18.66957 -43.65430 36160 ft 432 kts 210°
2026-05-08 17:49 -18.72267 -43.68445 36163 ft 433 kts 211°
2026-05-08 17:49 -18.77547 -43.71447 36167 ft 433 kts 210°
2026-05-08 17:50 -18.82888 -43.74484 36168 ft 434 kts 211°
2026-05-08 17:50 -18.88201 -43.77508 36167 ft 433 kts 211°
2026-05-08 17:51 -18.93502 -43.80528 36161 ft 433 kts 211°
2026-05-08 17:51 -18.98796 -43.83546 36155 ft 433 kts 211°
2026-05-08 17:52 -19.04125 -43.86586 36143 ft 433 kts 211°
2026-05-08 17:53 -19.12062 -43.91118 36124 ft 433 kts 210°
2026-05-08 17:53 -19.17363 -43.94145 36117 ft 434 kts 211°
2026-05-08 17:54 -19.22679 -43.97184 36108 ft 434 kts 211°
2026-05-08 17:54 -19.27990 -44.00224 36104 ft 434 kts 211°
2026-05-08 17:55 -19.33329 -44.03281 36106 ft 434 kts 211°
2026-05-08 17:55 -19.38632 -44.06323 36122 ft 434 kts 211°
2026-05-08 17:56 -19.43939 -44.09366 36124 ft 433 kts 211°
2026-05-08 17:56 -19.49246 -44.12413 36134 ft 433 kts 211°
2026-05-08 17:57 -19.54546 -44.15458 36141 ft 434 kts 211°
2026-05-08 17:57 -19.59859 -44.18512 36142 ft 434 kts 211°
2026-05-08 17:58 -19.65184 -44.21576 36141 ft 435 kts 211°
2026-05-08 17:58 -19.70504 -44.24638 36139 ft 436 kts 211°
2026-05-08 17:59 -19.75831 -44.27707 36133 ft 436 kts 211°
2026-05-08 17:59 -19.81184 -44.30794 36128 ft 435 kts 211°
2026-05-08 18:00 -19.86495 -44.33858 36127 ft 435 kts 211°
2026-05-08 18:00 -19.94447 -44.38453 36128 ft 434 kts 211°
2026-05-08 18:01 -19.99786 -44.41541 36129 ft 435 kts 211°
2026-05-08 18:01 -20.05088 -44.44608 36130 ft 435 kts 211°
2026-05-08 18:02 -20.09525 -44.47178 36132 ft 435 kts 211°
2026-05-08 18:02 -20.15578 -44.51095 36139 ft 434 kts 217°
2026-05-08 18:03 -20.20455 -44.54846 36148 ft 432 kts 218°
2026-05-08 18:03 -20.25305 -44.58626 36149 ft 433 kts 218°
2026-05-08 18:04 -20.30137 -44.62392 36148 ft 432 kts 218°
2026-05-08 18:04 -20.35009 -44.66191 36146 ft 433 kts 219°
2026-05-08 18:05 -20.39880 -44.69990 36147 ft 433 kts 219°
2026-05-08 18:05 -20.44712 -44.73764 36147 ft 433 kts 219°
2026-05-08 18:06 -20.49590 -44.77575 36150 ft 433 kts 219°
2026-05-08 18:06 -20.54449 -44.81367 36151 ft 434 kts 219°
2026-05-08 18:07 -20.59340 -44.85187 36150 ft 434 kts 219°
2026-05-08 18:07 -20.64218 -44.89001 36150 ft 435 kts 219°
2026-05-08 18:08 -20.69091 -44.92814 36152 ft 435 kts 219°
2026-05-08 18:08 -20.73987 -44.96651 36149 ft 436 kts 219°
2026-05-08 18:09 -20.78868 -45.00485 36148 ft 436 kts 219°
2026-05-08 18:09 -20.83751 -45.04326 36147 ft 436 kts 219°
2026-05-08 18:10 -20.88633 -45.08170 36148 ft 436 kts 219°
2026-05-08 18:10 -20.93519 -45.12017 36144 ft 436 kts 219°
2026-05-08 18:11 -20.98429 -45.15883 36140 ft 437 kts 219°
2026-05-08 18:11 -21.03304 -45.19725 36138 ft 437 kts 219°
2026-05-08 18:12 -21.08205 -45.23591 36134 ft 437 kts 219°
2026-05-08 18:12 -21.13101 -45.27458 36130 ft 437 kts 219°
2026-05-08 18:13 -21.17974 -45.31311 36134 ft 437 kts 219°
2026-05-08 18:13 -21.22886 -45.35195 36127 ft 437 kts 219°
2026-05-08 18:14 -21.27761 -45.39056 36122 ft 437 kts 219°
2026-05-08 18:14 -21.32632 -45.42915 36122 ft 437 kts 219°
2026-05-08 18:15 -21.37555 -45.46819 36120 ft 437 kts 219°
2026-05-08 18:15 -21.42413 -45.50677 36120 ft 437 kts 219°
2026-05-08 18:16 -21.47300 -45.54560 36117 ft 437 kts 219°
2026-05-08 18:16 -21.52212 -45.58447 36119 ft 438 kts 219°
2026-05-08 18:17 -21.57128 -45.62301 36118 ft 437 kts 219°
2026-05-08 18:17 -21.62043 -45.66158 36120 ft 437 kts 220°
2026-05-08 18:18 -21.66947 -45.70013 36123 ft 437 kts 220°
2026-05-08 18:18 -21.71852 -45.73871 36126 ft 437 kts 220°
2026-05-08 18:19 -21.76750 -45.77730 35979 ft 433 kts 220°
2026-05-08 18:19 -21.79192 -45.79654 35343 ft 432 kts 220°
2026-05-08 18:19 -21.81607 -45.81560 34297 ft 436 kts 220°
2026-05-08 18:20 -21.84049 -45.83489 33110 ft 443 kts 220°
2026-05-08 18:20 -21.86564 -45.85477 32014 ft 450 kts 220°
2026-05-08 18:20 -21.89089 -45.87470 30942 ft 455 kts 220°
2026-05-08 18:20 -21.91614 -45.89464 30088 ft 454 kts 220°
2026-05-08 18:21 -21.94121 -45.91441 29802 ft 440 kts 220°
2026-05-08 18:21 -21.96590 -45.93387 29513 ft 429 kts 220°
2026-05-08 18:21 -21.98974 -45.95272 29003 ft 423 kts 221°
2026-05-08 18:21 -22.01328 -45.97137 28371 ft 421 kts 220°
2026-05-08 18:22 -22.03692 -45.99011 27731 ft 419 kts 221°
2026-05-08 18:22 -22.06008 -46.00847 27159 ft 416 kts 221°
2026-05-08 18:22 -22.08332 -46.02690 26647 ft 415 kts 221°
2026-05-08 18:22 -22.10655 -46.04533 26134 ft 412 kts 221°
2026-05-08 18:23 -22.12960 -46.06360 25657 ft 410 kts 221°
2026-05-08 18:23 -22.15247 -46.08174 25202 ft 408 kts 221°
2026-05-08 18:23 -22.17392 -46.09877 24774 ft 407 kts 221°
2026-05-08 18:23 -22.19676 -46.11690 24317 ft 405 kts 221°
2026-05-08 18:24 -22.21925 -46.13479 23866 ft 404 kts 221°
2026-05-08 18:24 -22.24191 -46.15281 23404 ft 401 kts 221°
2026-05-08 18:24 -22.26428 -46.17059 22954 ft 400 kts 221°
2026-05-08 18:24 -22.28666 -46.18840 22504 ft 398 kts 221°
2026-05-08 18:25 -22.31010 -46.20444 22057 ft 401 kts 211°
2026-05-08 18:25 -22.33593 -46.21534 21625 ft 404 kts 199°
2026-05-08 18:25 -22.36376 -46.22133 21191 ft 405 kts 192°
2026-05-08 18:25 -22.39157 -46.22554 20727 ft 404 kts 191°
2026-05-08 18:26 -22.41923 -46.22948 20252 ft 401 kts 191°
2026-05-08 18:26 -22.44709 -46.23354 19774 ft 398 kts 191°
2026-05-08 18:26 -22.47443 -46.23763 19305 ft 396 kts 191°
2026-05-08 18:26 -22.50138 -46.24178 18842 ft 393 kts 191°
2026-05-08 18:27 -22.52874 -46.24601 18357 ft 392 kts 191°
2026-05-08 18:27 -22.54647 -46.24876 18043 ft 390 kts 191°
2026-05-08 18:27 -22.58212 -46.25431 17502 ft 386 kts 191°
2026-05-08 18:27 -22.60910 -46.25763 17141 ft 386 kts 184°
2026-05-08 18:28 -22.63582 -46.25750 16765 ft 385 kts 180°
2026-05-08 18:28 -22.66250 -46.25637 16333 ft 383 kts 179°
2026-05-08 18:28 -22.68929 -46.25523 15885 ft 381 kts 180°
2026-05-08 18:28 -22.71561 -46.25432 15432 ft 380 kts 180°
2026-05-08 18:29 -22.74200 -46.25355 14957 ft 379 kts 180°
2026-05-08 18:29 -22.76825 -46.25291 14483 ft 378 kts 180°
2026-05-08 18:29 -22.79462 -46.25233 14006 ft 377 kts 180°
2026-05-08 18:29 -22.82105 -46.25178 13527 ft 375 kts 180°
2026-05-08 18:30 -22.84709 -46.25127 13068 ft 373 kts 180°
2026-05-08 18:30 -22.87288 -46.25074 12607 ft 371 kts 180°
2026-05-08 18:30 -22.89850 -46.25023 12131 ft 369 kts 180°
2026-05-08 18:30 -22.92403 -46.24972 11656 ft 367 kts 180°
2026-05-08 18:31 -22.94983 -46.24921 11179 ft 365 kts 180°
2026-05-08 18:31 -22.97498 -46.24873 10715 ft 363 kts 180°
2026-05-08 18:31 -23.00008 -46.24822 10250 ft 360 kts 181°
2026-05-08 18:31 -23.02515 -46.24773 9787 ft 357 kts 181°
2026-05-08 18:32 -23.04985 -46.24725 9328 ft 354 kts 181°
2026-05-08 18:32 -23.07431 -46.24676 8879 ft 352 kts 180°
2026-05-08 18:32 -23.09893 -46.24630 8442 ft 348 kts 181°
2026-05-08 18:32 -23.12285 -46.24583 8018 ft 345 kts 180°
2026-05-08 18:33 -23.14687 -46.24535 7582 ft 342 kts 180°
2026-05-08 18:33 -23.17079 -46.24487 7145 ft 339 kts 181°
2026-05-08 18:33 -23.19412 -46.24441 6721 ft 337 kts 180°
2026-05-08 18:33 -23.21766 -46.24395 6322 ft 332 kts 180°
2026-05-08 18:34 -23.24035 -46.24348 6221 ft 317 kts 181°
2026-05-08 18:34 -23.26198 -46.24305 6163 ft 303 kts 180°
2026-05-08 18:34 -23.28250 -46.24263 6107 ft 289 kts 181°
2026-05-08 18:34 -23.30204 -46.24389 6044 ft 272 kts 195°
2026-05-08 18:35 -23.31943 -46.25046 5961 ft 257 kts 209°
2026-05-08 18:35 -23.33510 -46.25861 5862 ft 244 kts 211°
2026-05-08 18:35 -23.35011 -46.26679 5774 ft 232 kts 211°
2026-05-08 18:35 -23.36417 -46.27439 5691 ft 225 kts 211°
2026-05-08 18:36 -23.37814 -46.28216 5582 ft 222 kts 221°
2026-05-08 18:36 -23.38743 -46.29421 5407 ft 199 kts 252°
2026-05-08 18:36 -23.39166 -46.30813 5150 ft 189 kts 262°
2026-05-08 18:36 -23.39470 -46.32180 4890 ft 185 kts 262°
2026-05-08 18:37 -23.39786 -46.33512 4645 ft 174 kts 261°
2026-05-08 18:37 -23.40103 -46.34728 4422 ft 161 kts 259°
2026-05-08 18:37 -23.40411 -46.35868 4211 ft 158 kts 259°
2026-05-08 18:37 -23.40717 -46.37002 4030 ft 154 kts 259°
2026-05-08 18:38 -23.41024 -46.38130 3834 ft 156 kts 258°
2026-05-08 18:38 -23.41326 -46.39241 3663 ft 152 kts 258°
2026-05-08 18:38 -23.41631 -46.40366 3466 ft 156 kts 259°
2026-05-08 18:38 -23.41930 -46.41493 3300 ft 153 kts 258°
2026-05-08 18:39 -23.42229 -46.42606 3072 ft 152 kts 257°
2026-05-08 18:39 -23.42530 -46.43697 2893 ft 149 kts 257°
2026-05-08 18:39 -23.42821 -46.44784 2705 ft 151 kts 257°
2026-05-08 18:39 -23.43123 -46.45879 2528 ft 151 kts 257°
2026-05-08 18:40 -23.43411 -46.46955 2469 ft 132 kts 254°
2026-05-08 18:40 -23.43620 -46.47731 2468 ft 83 kts 253°
2026-05-08 18:40 -23.43730 -46.48140 2467 ft 23 kts 253°
2026-05-08 18:40 -23.43698 -46.48237 2467 ft 14 kts 333°
2026-05-08 18:41 -23.43598 -46.48273 2467 ft 15 kts 343°
2026-05-08 18:41 -23.43493 -46.48306 2467 ft 15 kts 343°
2026-05-08 18:41 -23.43388 -46.48339 2468 ft 16 kts 343°
2026-05-08 18:41 -23.43279 -46.48374 2468 ft 16 kts 343°
2026-05-08 18:42 -23.43167 -46.48409 2468 ft 16 kts 343°
2026-05-08 18:42 -23.43084 -46.48421 2468 ft 10 kts 29°
2026-05-08 18:42 -23.43063 -46.48345 2468 ft 10 kts 84°
2026-05-08 18:42 -23.43054 -46.48283 2468 ft 6 kts 50°
2026-05-08 18:43 -23.43000 -46.48280 2468 ft 8 kts 356°
2026-05-08 18:43 -23.42973 -46.48281 2468 ft 1 kts 356°